This demonstration page uses our WeatherBlox Daily Observations layout. Learn more.

Left ArrowRight Arrow

44.31136, -96.79839

Hourly Observations for August 3, 2022

Temp ( °F °C ) Dew Point ( °F °C ) Humidity (%) Winds ( mph kmh ) Pressure ( in mb ) Visibility ( mi km ) Precip ( " mm )
12:34 am 00:34 Clear with Nearby Thunderstorms 72 22 64 18 78 78 ENE 7 11 29.62 1003 10 16 0.00 0.00
12:49 am 00:49 Clear 73 23 64 18 74 74 NNE 8 13 29.61 1003 10 16 0.00 0.00
12:56 am 00:56 Clear 72 22.2 65 18.3 79 79 NNE 7 11 29.67 1005 10 16 0.00 0.00
1:56 am 01:56 Mostly Clear with Light Rain 74 23.3 64 17.8 71 71 E 6 9 29.70 1006 10 16 0.00 0.00
2:56 am 02:56 Clear 72 22.2 65 18.3 79 79 SSE 16 26 29.68 1005 10 16 0.00 0.00
3:56 am 03:56 Clear 70 21.1 64 17.8 82 82 WSW 7 11 29.67 1005 10 16 0.00 0.00
4:56 am 04:56 Clear 67 19.4 65 18.3 93 93 NW 3 6 29.72 1006 10 16 0.00 0.00
5:56 am 05:56 Clear 67 19.4 65 18.3 93 93 WNW 3 6 29.74 1007 10 16 0.00 0.00
6:56 am 06:56 Sunny 67 19.4 63 17.2 87 87 W 3 6 29.78 1008 10 16 0.00 0.00
7:56 am 07:56 Sunny 69 20.6 65 18.3 87 87 N 3 6 29.80 1009 10 16 0.00 0.00
8:56 am 08:56 Sunny 77 25 63 17.2 62 62 NNW 8 13 29.80 1009 10 16 0.00 0.00
9:56 am 09:56 Sunny 79 26.1 60 15.6 52 52 N 15 24 29.84 1010 10 16 0.00 0.00
10:56 am 10:56 Sunny 79 26.1 59 15 50 50 NNW 16 26 29.86 1011 10 16 0.00 0.00
11:56 am 11:56 Sunny 81 27.2 53 11.7 38 38 NW 16 26 29.88 1012 10 16 0.00 0.00
12:56 pm 12:56 Sunny 81 27.2 55 12.8 41 41 NW 15 24 29.88 1012 10 16 0.00 0.00
1:56 pm 13:56 Sunny 81 27.2 59 15 47 47 NNW 18 30 29.90 1012 10 16 0.00 0.00
2:56 pm 14:56 Sunny 79 26.1 56 13.3 45 45 NNW 21 33 29.92 1013 10 16 0.00 0.00
3:56 pm 15:56 Sunny 81 27.2 57 13.9 44 44 NNW 16 26 29.93 1014 10 16 0.00 0.00
4:56 pm 16:56 Sunny 81 27.2 59 15 47 47 N 14 22 29.94 1014 10 16 0.00 0.00
5:56 pm 17:56 Sunny 80 26.7 57 13.9 45 45 N 14 22 29.96 1014 10 16 0.00 0.00
6:56 pm 18:56 Sunny 79 26.1 57 13.9 47 47 NNW 10 17 29.97 1015 10 16 0.00 0.00
7:56 pm 19:56 Sunny 75 23.9 59 15 58 58 NNW 8 13 29.99 1016 10 16 0.00 0.00
8:56 pm 20:56 Clear 69 20.6 60 15.6 73 73 NNE 3 6 30.00 1016 10 16 0.00 0.00
9:56 pm 21:56 Clear 67 19.4 60 15.6 79 79 NE 6 9 30.03 1017 10 16 0.00 0.00
10:56 pm 22:56 Clear 64 17.8 60 15.6 87 87 NE 6 9 30.04 1017 10 16 0.00 0.00
11:56 pm 23:56 Clear 63 17.2 58 14.4 84 84 Calm 30.05 1018 10 16 0.00 0.00

Powered by AerisWeather